Location: Amsterdam
(30.7274°N, 84.4357°W)
Time: 17:10:57
(UTC+00:00)

Vanguard 1 Rocket - Pass Details

Date: 19 February 2026
Orbit: 653 x 4214 km, 34.3° (Epoch: 8 March)

Event Time Altitude Azimuth Distance (km) Brightness Sun altitude
Rises 02:04:43 0° 288° (WNW) 7,186 13.0 -34.2°
Reaches altitude 10° 02:09:31 10° 281° (W) 6,547 12.5 -35.3°
Maximum altitude 02:29:56 40° 222° (SW) 5,295 11.2 -39.6°
Enters shadow 02:50:55 12° 162° (SSE) 6,740 11.5 -44.0°
